Flag for El Salvador Weather past 2 weeks in Santa Ana, El Salvador

Now
82 °F

Scattered clouds.


Feels Like: 88 °F
Forecast: 62 / 83 °F
Wind: 7 mph from South

Location: San Salvador / Ilopango

Current Time: Sep 21, 2014 at 12:50:09 PM

Latest Report: Sep 21, 2014 at 11:50 AM


Visibility: N/A

Pressure: 30.01 "Hg

Humidity: 74%

Dew point: 73 °F

Location of Santa AnaLocation

Historic Weather in Santa Ana — Graph

°F

Santa Ana temperature yesterday

Maximum temperature yesterday: 82 °F (at 12:50 PM)
Minimum temperature yesterday: 68 °F (at 6:50 AM)
Average temperature yesterday: 74 °F

Past Weeks' High & Low Weather Summary

 TemperatureHumidityPressure
High88 °F (Sep 8, 12:50 PM)100% (Sep 6, 6:50 PM)30.09 "Hg (Sep 6, 6:50 PM)
Low68 °F (Sep 7, 5:50 AM)59% (Sep 8, 12:50 PM)29.86 "Hg (Sep 10, 3:50 PM)
Average76 °F86%29.96 "Hg
* Reported Sep 6 11:50 AM — Sep 21 11:50 AM, Santa Ana, Weather by CustomWeather, © 2014

Note: Actual official high and low records may vary slightly from our data, if they occured in-between our weather recording intervals... More about our weather records

Advertising

Santa Ana weather history for previous 24 hours

 ConditionsComfort  
Time TempWeatherWind HumidityBarometerVisibility
11:50 AM
Sep 21
82 °FScattered clouds.7 mph74%30.01 "HgN/A
10:50 AM81 °FPartly sunny.5 mph74%30.01 "HgN/A
9:50 AM79 °FScattered clouds.5 mph79%30.04 "HgN/A
8:50 AM75 °FScattered clouds.No wind89%30.01 "HgN/A
7:50 AM72 °FScattered clouds.No wind94%30.01 "HgN/A
6:50 AM70 °FSunny.3 mph94%29.98 "Hg10 mi
5:50 AM68 °FFog.3 mph100%29.98 "HgN/A
11:50 PM
Sep 20
72 °FClear.No wind94%30.01 "Hg10 mi
10:50 PM72 °FPassing clouds.2 mph94%30.04 "HgN/A
9:50 PM72 °FPassing clouds.2 mph94%30.04 "HgN/A
8:50 PM73 °FPassing clouds.3 mph89%30.04 "HgN/A
7:50 PM72 °FPassing clouds.2 mph94%30.01 "HgN/A
6:50 PM73 °FFog.No wind94%29.98 "Hg3 mi
5:50 PM73 °FScattered showers. Broken clouds.2 mph94%29.95 "Hg5 mi
4:50 PM73 °FLight rain. Partly sunny.5 mph94%29.95 "Hg5 mi
3:50 PM73 °FFog.2 mph94%29.92 "Hg5 mi
2:50 PM81 °FRain. Scattered clouds.3 mph74%29.92 "HgN/A
1:50 PM81 °FPassing clouds.7 mph79%29.95 "HgN/A
12:50 PM82 °FScattered clouds.2 mph70%29.95 "HgN/A
Weather by CustomWeather, © 2014

See weather overviewHow to use our weather pages